#timestamp,LO_Frequency,Hit,StdDev 
1696705215.6,286046998.4,N
1696705235.5,286046998.3,N
1696705255.3,286046998.5,N
1696705275.1,286047000.8,N
1696705295.9,286046998.1,N
1696705315.7,286046998.4,N
1696705335.5,286046999.0,N
1696705355.4,286046998.5,N
1696705375.2,286047001.1,N
1696705395.1,286047000.6,N
1696705396.0,286047000.6,N
1696705415.8,286047001.0,N
1696705435.6,286047000.6,N
1696705455.5,286046998.6,N
1696705475.3,286046998.2,N
1696705495.2,286046999.4,N
1696705515.9,286047001.2,N
1696705535.7,286046998.8,N
1696705555.6,286046998.8,N
1696705575.4,286047001.1,N
1696705595.2,286046998.1,N
1696705615.1,286047000.9,N
1696705616.0,286047000.9,N
1696705635.8,286046998.3,N
1696705655.7,286047001.1,N
1696705675.5,286046998.1,N
1696705695.3,286046998.4,N
1696705715.2,286046998.7,N
1696705735.0,286046998.9,N
1696705735.9,286046998.9,N
1696705755.7,286046998.3,N
1696705775.6,286046998.3,N
1696705795.4,286046998.6,N
1696705815.3,286046998.5,N
1696705835.1,286046998.3,N
1696705836.0,286046998.3,N
1696705855.8,286046999.0,N
1696705875.7,286046999.1,N
1696705895.5,286046999.2,N
1696705915.3,286046998.9,N
1696705935.2,286046998.9,N
1696705955.0,286046996.5,Y
1696705955.9,286046996.5,P
1696705975.8,286046998.8,N
1696705995.6,286047001.2,N
1696706015.5,286046998.9,N
1696706035.3,286046998.1,N
1696706055.1,286046998.8,N
1696706075.9,286046998.6,N
1696706095.7,286047000.9,N
1696706115.5,286046998.6,N
1696706135.4,286046998.1,N
1696706155.2,286046998.1,N
1696706175.1,286047001.1,N
1696706176.0,286047001.1,N
1696706195.8,286046998.1,N
1696706215.6,286047000.6,N
1696706235.5,286047001.2,N
1696706255.3,286046998.9,N
1696706275.1,286046999.0,N
1696706295.9,286047000.8,N
1696706315.7,286047001.1,N
1696706335.6,286047001.0,N
1696706355.4,286046998.8,N
1696706375.2,286046998.9,N
1696706395.1,286046998.3,N
1696706396.0,286046998.3,N
1696706415.8,286047001.2,N
1696706435.6,286047000.9,N
1696706455.5,286047000.8,N
1696706475.3,286047000.3,N
1696706495.2,286046999.9,N
1696706515.9,286047000.6,N
1696706535.7,286047002.4,N
1696706555.6,286046999.7,N
1696706575.4,286046999.9,N
1696706595.2,286047002.3,N
1696706615.1,286047002.6,N
1696706616.0,286047002.6,N
1696706635.8,286047004.4,Y
1696706655.7,286047004.0,P
1696706675.5,286047003.0,N
1696706695.3,286047003.3,N
1696706715.2,286047003.5,N
1696706735.0,286047003.1,N
1696706735.9,286047003.1,N
1696706755.8,286047003.2,N
1696706775.6,286047003.4,Y
1696706795.4,286047002.6,P
1696706815.3,286047002.5,P
1696706835.1,286047002.1,P
1696706855.9,286047001.4,Y
1696706875.7,286046998.2,P
1696706895.5,286047000.7,N
1696706915.4,286047001.1,N
1696706935.2,286047001.0,N
1696706955.1,286047000.4,N
1696706956.0,286047000.4,N
1696706975.8,286047001.0,N
1696706995.6,286047000.4,N
1696707015.5,286046999.8,N
1696707035.3,286046999.9,N
1696707055.2,286047002.4,N
1696707075.0,286047002.0,N
1696707075.9,286047002.0,N
1696707095.7,286047001.4,N
1696707115.6,286047002.8,N
1696707135.4,286047000.4,N
1696707155.3,286047001.1,N
1696707175.1,286046998.2,N
1696707176.0,286046998.2,N
1696707195.8,286047000.7,N
1696707215.7,286047000.5,N
1696707235.5,286047000.0,N
1696707255.3,286047001.0,N
1696707275.2,286047000.6,N
1696707295.0,286047000.8,N
1696707295.9,286047000.8,N
1696707315.8,286046999.9,N
1696707335.6,286047002.8,N
1696707355.4,286046999.7,N
1696707375.3,286047002.1,N
1696707395.1,286047002.0,N
1696707415.8,286047002.4,N
1696707435.7,286047002.4,N
1696707455.5,286047001.6,N
1696707475.4,286047002.1,N
1696707495.2,286047002.4,N
1696707515.0,286047002.2,N
1696707515.9,286047002.2,N
1696707535.8,286047001.4,N
1696707555.6,286047004.1,Y
1696707575.5,286047002.5,P
1696707595.3,286047002.7,P
1696707615.1,286047000.2,N
1696707635.9,286047002.7,N
1696707655.7,286046999.8,N
1696707675.5,286047000.0,N
1696707695.4,286047002.4,N
1696707715.2,286047002.1,N
1696707735.0,286047001.4,N
1696707736.0,286047001.4,N
1696707755.8,286047001.8,N
1696707775.6,286047001.6,N
1696707795.5,286047002.1,N
1696707815.3,286047001.6,N
1696707835.1,286047004.2,Y
1696707855.9,286047002.5,P
1696707875.7,286046999.9,N
1696707895.6,286047002.3,N
1696707915.4,286047002.7,N
1696707935.2,286046999.7,N
1696707955.1,286046999.9,N
1696707956.0,286046999.9,N
1696707975.8,286047000.6,N
1696707995.6,286047000.2,N
1696708015.5,286047000.2,N
1696708035.3,286046999.7,N
1696708055.2,286047000.0,N
1696708075.9,286047001.0,N
1696708095.7,286047000.7,N
1696708115.6,286047002.5,N
1696708135.4,286047002.4,N
1696708155.2,286046999.9,N
1696708175.1,286046999.8,N
1696708176.0,286046999.8,N
1696708195.8,286047000.1,N
1696708215.7,286047002.4,N
1696708235.5,286047000.2,N
1696708255.3,286047002.6,N
1696708275.2,286047001.6,N
1696708295.0,286047001.7,N
1696708295.9,286047001.7,N
1696708315.8,286047003.9,Y
1696708335.6,286047002.4,P
1696708355.4,286047000.3,N
1696708375.3,286047000.0,N
1696708395.1,286047000.1,N
1696708415.8,286047002.2,N
1696708435.7,286046999.7,N
1696708455.5,286047002.4,N
1696708475.4,286046999.9,N
1696708495.2,286046999.7,N
1696708515.0,286047002.4,N
1696708515.9,286047002.4,N
1696708535.8,286047002.4,N
1696708555.6,286046999.7,N
1696708575.4,286047002.5,N
1696708595.3,286047001.7,N
1696708615.1,286047002.1,N
1696708635.9,286047001.5,N
1696708655.7,286047001.8,N
1696708675.5,286047001.5,N
1696708695.4,286047002.3,N
1696708715.2,286047002.8,N
1696708735.0,286047002.5,N
1696708735.9,286047002.5,N
1696708755.8,286047002.4,N
1696708775.6,286047002.7,N
1696708795.5,286047000.5,N
